sat.trackr.live / text

‹ back to catalog

TRANSPORTER-14 OBJECT V

NORAD 64547 · 2025-135V

PAYLOAD ACTIVE UNKNOWN

§ Identity

Operator
Country
TBD
Launch date
2025-06-23
Launch site
AFWTR
Launch vehicle
Mass (kg)
RCS (m²)

External: N2YO · Heavens-Above · Gunter

§ Orbital elements

Epoch: 2026-05-24T13:27:41.087808Z

Period
94.45 min
Inclination
97.4599°
Eccentricity
0.0000904
Mean motion
15.24682754 rev/d
Perigee alt
491.1 km
Apogee alt
492.4 km
Semi-major
6,869.9 km
B*
2.7532e-4
RAAN
260.4222°
Arg perigee
74.9414°
Mean anomaly
285.1923°
Rev number
5,132

§ Raw data

TRANSPORTER-14 OBJECT V1 64547U 25135V   26144.56089222  .00006734  00000+0  27532-3 0  99942 64547  97.4599 260.4222 0000904  74.9414 285.1923 15.24682754 51326

JSON: /api/v1/satellites/64547 · /tle

For live sub-satellite position, see the globe view (requires WebGL).

§ Visibility from observer

Set your observer location to see the next 7 days of passes ≥ 10°. The values pass through the URL so the page stays shareable.

No JS? Fill the form by hand. The geolocation button needs JavaScript.